Regional Weather Roundup
Issued by NWS Goodland, KS

Home | Current Version | Previous Version | Text Only | Print | Product List | Glossary Off
Versions: 1 2 3 4 5 6 7 8 9 10 11 12 13 14 15 16 17 18 19 20 21 22 23 24 25 26 27 28 29 30 31 32 33 34 35 36 37 38 39 40 41 42 43 44 45 46 47 48 49 50

000
ASUS43 KGLD 261759
RWRGLD

GOODLAND FORECAST AREA HOURLY WEATHER ROUNDUP
NATIONAL WEATHER SERVICE GOODLAND KS
1200 PM MDT FRI MAY 26 2017

...OFFICIAL OBSERVATIONS...

CITY           SKY/WX    TMP DP  RH WIND       PRES   REMARKS
GOODLAND KS    SUNNY     65  48  54 VRB5      29.95S
HILL CITY KS   SUNNY     73  51  46 NE14      29.90S
IMPERIAL NEB   SUNNY     66  45  46 VRB5      29.94F
MCCOOK NEB     SUNNY     71  46  40 NE9       29.92S
AKRON CO       SUNNY     60  45  57 SE8       29.95F
BURLINGTON CO  SUNNY     65  52  62 NE6       29.96F
LIMON CO       SUNNY     64  48  56 S9G20     29.96F
$$

...UNOFFICIAL OBSERVATIONS...

CITY           SKY/WX    TMP DP  RH WIND       PRES   REMARKS
LENORA KS        N/A     66  32  28 MISG        N/A
NORTON KS      SUNNY     68  48  49 N9        29.90F
SHARON SPRINGS   N/A     69  53  55 NE9         N/A
TRENTON NEB      N/A     66  32  28 CALM        N/A
YUMA CO        FAIR      61  34  36 E6        29.95F
$$




USA.gov is the U.S. government's official web portal to all federal, state and local government web resources and services.